Location: Unspecified
(0.0000°N, 0.0000°E)
Time: 10:21:40
(UTC+00:00)

MIDAS 4 DEB - Pass Details

Date: 14 November 2025
Orbit: 3271 x 3959 km, 95.8° (Epoch: 26 July)

Event Time Altitude Azimuth Distance (km) Brightness Sun altitude
Exits shadow 21:07:14 76° 14° (NNE) 3,733 ? -47.2°
Maximum altitude 21:09:37 89° 101° (E) 3,692 ? -47.7°
Drops below altitude 10° 21:29:30 10° 191° (S) 7,026 ? -52.1°
Sets 21:34:04 0° 191° (S) 8,101 ? -53.0°
